Location: Venise Bay
(45.0825°N, 73.1481°W)
Time: 01:08:27
(UTC-05:00)

ISS - Pass Details

Date: 25 January 2020
Orbit: 415 x 422 km, 51.6° (Epoch: 22 February)

Event Time Altitude Azimuth Distance (km) Brightness Sun altitude
Rises 19:23:00 0° 280° (W) 2,377 1.3 -26.9°
Reaches altitude 10° 19:25:18 10° 293° (WNW) 1,511 -0.1 -27.3°
Enters shadow 19:26:31 18° 307° (NW) 1,127 -1.1 -27.5°
